Flag for Laos Weather past 2 weeks in Vientiane, Laos

Now
64 °F

Fog.


Feels Like: 64 °F
Forecast: 62 / 89 °F
Wind: 2 mph from North

Location: Vientiane Airport

Current Time: Jan 28, 2015 at 6:42:53 AM

Latest Report: Jan 28, 2015 at 6:00 AM


Visibility: 2 mi

Pressure: 29.83 "Hg

Humidity: 83%

Dew point: 59 °F

Location of VientianeLocation

Historic Weather in Vientiane — Graph

°F

Vientiane temperature yesterday

Maximum temperature yesterday: 90 °F (at 3:00 PM)
Minimum temperature yesterday: 66 °F (at 7:00 AM)
Average temperature yesterday: 79 °F

Past Weeks' High & Low Weather Summary

 TemperatureHumidityPressure
High90 °F (Jan 25, 3:00 PM)94% (Jan 14, 7:00 AM)30.18 "Hg (Jan 14, 7:00 AM)
Low54 °F (Jan 14, 7:00 AM)37% (Jan 17, 2:00 PM)29.80 "Hg (Jan 27, 4:00 PM)
Average71 °F64%30.02 "Hg
* Reported Jan 12 11:00 PM — Jan 27 11:00 PM, Vientiane, Weather by CustomWeather, © 2014

Note: Actual official high and low records may vary slightly from our data, if they occured in-between our weather recording intervals... More about our weather records

Advertising

Vientiane weather history for previous 24 hours

 ConditionsComfort  
Time TempWeatherWind HumidityBarometerVisibility
11:00 PM
Jan 27
68 °FFog.2 mph78%29.89 "Hg2 mi
10:30 PM73 °FFog.2 mph74%29.89 "Hg2 mi
10:00 PM73 °FFog.2 mph74%29.86 "Hg2 mi
9:30 PM77 °FFog.2 mph57%29.86 "Hg2 mi
9:00 PM77 °FFog.2 mph57%29.86 "Hg2 mi
8:30 PM81 °FFog.2 mph51%29.83 "Hg2 mi
8:00 PM81 °FFog.2 mph51%29.83 "Hg2 mi
7:30 PM82 °FFog.2 mph45%29.83 "Hg2 mi
7:00 PM82 °FFog.2 mph45%29.83 "Hg2 mi
6:30 PM86 °FFog.2 mph49%29.80 "Hg2 mi
6:00 PM86 °FFog.2 mph49%29.80 "Hg3 mi
5:30 PM88 °FClear.2 mph46%29.80 "Hg5 mi
5:00 PM88 °FClear.2 mph46%29.80 "Hg5 mi
4:00 PM90 °FSunny.5 mph43%29.80 "Hg10 mi
3:30 PM90 °FSunny.5 mph43%29.83 "Hg10 mi
3:00 PM90 °FSunny.5 mph43%29.83 "Hg10 mi
2:30 PM88 °FClear.5 mph46%29.86 "Hg5 mi
2:00 PM88 °FClear.2 mph46%29.86 "Hg5 mi
1:30 PM86 °FClear.5 mph46%29.92 "Hg5 mi
1:00 PM86 °FClear.5 mph46%29.92 "Hg5 mi
12:00 PM84 °FClear.5 mph51%29.95 "Hg4 mi
11:30 AM79 °FClear.7 mph58%29.98 "Hg4 mi
11:00 AM79 °FClear.5 mph58%29.98 "Hg4 mi
10:30 AM75 °FPassing clouds.2 mph65%29.98 "Hg4 mi
10:00 AM75 °FPassing clouds.2 mph65%29.98 "Hg4 mi
9:30 AM72 °FFog.2 mph65%29.95 "Hg3 mi
9:00 AM72 °FFog.2 mph65%29.95 "Hg3 mi
8:30 AM68 °FFog.2 mph73%29.95 "Hg3 mi
8:00 AM68 °FFog.5 mph73%29.95 "Hg3 mi
7:30 AM66 °FFog.2 mph78%29.89 "Hg2 mi
7:00 AM66 °FFog.2 mph78%29.89 "Hg2 mi
6:30 AM68 °FFog.2 mph78%29.92 "Hg2 mi
6:00 AM68 °FFog.2 mph78%29.92 "Hg2 mi
Weather by CustomWeather, © 2014

See weather overviewHow to use our weather pages